EW6143 Weather Reports


time (UTC)temp
F
wind
direction
speed
knots
gust
knots
rain 1hr
in
rain 24hr
in
rain mn
in
humidity
%
barometer
mb
20260505053027 72 344 4.3 11.3 0.00 0.00 0.00 74 1006.3
20260505051528 72 315 4.3 9.6 0.00 0.00 0.00 74 1006.3
20260505041537 72 278 4.3 11.3 0.00 0.00 0.00 73 1006.6
20260505040033 72 333 5.2 12.2 0.00 0.00 0.00 72 1006.7
20260505034529 73 350 5.2 11.3 0.00 0.00 0.00 71 1006.6
20260505033027 73 360 4.3 8.7 0.00 0.00 0.00 71 1006.7
20260505031526 73 292 4.3 9.6 0.00 0.00 0.00 70 1006.7
20260505030028 73 320 5.2 11.3 0.00 0.00 0.00 70 1006.8
20260505024527 74 301 3.5 8.7 0.00 0.00 0.00 69 1006.8
20260505023027 74 329 3.5 10.4 0.00 0.00 0.00 69 1006.4
20260505021530 74 287 4.3 8.7 0.00 0.00 0.00 68 1006.3
20260505020035 75 311 3.5 7.8 0.00 0.00 0.00 66 1006.3
20260505014538 75 299 4.3 10.4 0.00 0.00 0.00 65 1006.4
20260505013037 76 355 4.3 9.6 0.00 0.00 0.00 65 1006.4
20260505011535 76 338 3.5 10.4 0.00 0.00 0.00 64 1006.3
20260505010026 76 302 4.3 11.3 0.00 0.00 0.00 63 1006.2
20260505004540 77 335 6.1 12.2 0.00 0.00 0.00 62 1006.3
20260505003048 77 336 7.0 15.6 0.00 0.00 0.00 61 1006.3
20260505001530 78 323 7.8 15.6 0.00 0.00 0.00 61 1006.5
20260505000034 78 324 7.8 19.1 0.00 0.00 0.00 60 1006.5
20260504234527 78 327 7.8 12.2 0.00 0.00 0.00 60 1006.7
20260504233029 78 360 5.2 13.0 0.00 0.00 0.00 60 1006.7
20260504231530 79 245 6.1 11.3 0.00 0.00 0.00 59 1006.8
20260504230027 80 352 8.7 20.9 0.00 0.00 0.00 57 1007.0
20260504224528 80 327 6.1 15.6 0.00 0.00 0.00 58 1007.2
20260504223031 80 319 8.7 16.5 0.00 0.00 0.00 57 1007.0
20260504221526 80 288 7.0 17.4 0.00 0.00 0.00 57 1007.2
20260504220031 80 301 7.0 20.0 0.00 0.00 0.00 57 1007.4
20260504214531 80 325 7.8 15.6 0.00 0.00 0.00 56 1007.8
20260504213029 80 352 7.0 16.5 0.00 0.00 0.00 56 1007.8
20260504211536 80 320 8.7 20.9 0.00 0.00 0.00 55 1008.1
20260504210026 80 342 7.0 14.8 0.00 0.00 0.00 56 1008.2
20260504204532 80 330 6.1 15.6 0.00 0.00 0.00 55 1008.7
20260504203029 80 301 6.1 18.2 0.00 0.00 0.00 53 1009.1
20260504201529 80 290 7.8 16.5 0.00 0.00 0.00 52 1009.3
20260504200029 80 360 7.8 17.4 0.00 0.00 0.00 52 1009.5
20260504194528 79 351 7.8 14.8 0.00 0.00 0.00 53 1009.9
20260504193030 79 318 7.8 16.5 0.00 0.00 0.00 52 1009.9
20260504191529 79 290 7.8 15.6 0.00 0.00 0.00 51 1010.3
20260504190028 79 331 7.0 15.6 0.00 0.00 0.00 51 1010.3
20260504184541 79 288 6.1 14.8 0.00 0.00 0.00 49 1010.6
20260504183029 78 360 7.8 18.2 0.00 0.00 0.00 49 1010.9
20260504181531 78 360 7.0 13.9 0.00 0.00 0.00 50 1011.1
20260504180028 78 351 7.8 17.4 0.00 0.00 0.00 50 1011.3
20260504174529 76 360 7.8 16.5 0.00 0.00 0.00 50 1011.6
20260504173028 76 350 7.8 15.6 0.00 0.00 0.00 50 1011.8
20260504171529 75 317 7.8 17.4 0.00 0.00 0.00 52 1012.0
20260504081531 64 339 2.6 9.6 0.00 0.00 0.00 62 1014.1